Weather History for Glendive, MT

Change the Weather History Date:

Sunday, December 9, 2012

  Actual Average Record
Temperature  
Mean Temperature 0 °F -  
Max Temperature 12 °F 33 °F 46 °F (2001)
Min Temperature -9 °F 14 °F -9 °F (2012)
Degree Days  
Heating Degree Days 64    
Moisture  
Dew Point -4 °F    
Average Humidity 77    
Maximum Humidity 100    
Minimum Humidity 60    
Precipitation  
Precipitation 0.00 in - - ()
Sea Level Pressure  
Sea Level Pressure 30.19 in    
Wind  
Wind Speed 8 mph (SSW)    
Max Wind Speed 16 mph    
Max Gust Speed -    
Visibility 10 miles    
Events      
Averages and records for this station are not official NWS values.
T = Trace of Precipitation, MM = Missing Value Source: NWS Daily Summary

Daily Weather History Graph

Daily Weather History Graph

Search for Another Location

Airport:

Trip Planner

Search our weather history database for the weather conditions in past years. The results will help you decide how hot, cold, wet, or windy it might be!

Date:

Astronomy

Dec. 09, 2012 Rise Set
Actual Time 7:34 AM MST 4:09 PM MST
Civil Twilight 6:58 AM MST 4:44 PM MST
Nautical Twilight 6:20 AM MST 5:23 PM MST
Astronomical Twilight 5:43 AM MST 6:00 PM MST
Moon 2:57 AM MST (12/9) 1:28 PM MST (12/9)
Length of Visible Light 9h 46m
Length of Day
8h 35m
Waning Crescent, 18% of the Moon is Illuminated
Dec 9
Waning Crescent
Dec 13
New
Dec 19
First Quarter
Dec 28
Full
Jan 4
Last Quarter

Hourly Weather History & Observations

Time (MST) Temp. Windchill Dew Point Humidity Pressure Visibility Wind Dir Wind Speed Gust Speed Precip Events Conditions
12:16 AM -2.2 °F -12.5 °F -11.2 °F 66% 30.26 in 10.0 mi North 4.6 mph - N/A   Clear
12:55 AM -2.2 °F -19.9 °F -9.4 °F 71% 30.27 in 10.0 mi NNW 11.5 mph - N/A   Clear
1:15 AM -4.0 °F -22.1 °F -9.4 °F 78% 30.28 in 10.0 mi NNW 11.5 mph - N/A   Clear
1:35 AM -2.2 °F -19.9 °F -5.8 °F 85% 30.28 in 10.0 mi NW 11.5 mph - N/A   Clear
1:55 AM -2.2 °F -19.9 °F -7.6 °F 78% 30.29 in 10.0 mi NW 11.5 mph - N/A   Clear
2:15 AM -2.2 °F -20.7 °F -7.6 °F 78% 30.30 in 10.0 mi NW 12.7 mph - N/A   Clear
2:35 AM -2.2 °F -20.7 °F -7.6 °F 78% 30.30 in 10.0 mi NW 12.7 mph - N/A   Clear
2:55 AM -2.2 °F -19.9 °F -5.8 °F 85% 30.30 in 10.0 mi NNW 11.5 mph - N/A   Clear
3:35 AM -2.2 °F - -9.4 °F 71% 30.32 in 10.0 mi Calm Calm - N/A   Clear
3:55 AM -4.0 °F - -7.6 °F 85% 30.32 in 10.0 mi Calm Calm - N/A   Clear
4:15 AM -2.2 °F - -5.8 °F 85% 30.32 in 10.0 mi Calm Calm - N/A   Clear
4:35 AM -5.8 °F - -16.6 °F 60% 30.33 in 10.0 mi Calm Calm - N/A   Clear
5:15 AM -7.6 °F -18.8 °F -14.8 °F 71% 30.34 in 10.0 mi SSW 4.6 mph - N/A   Clear
5:35 AM -7.6 °F -18.8 °F -9.4 °F 92% 30.33 in 10.0 mi South 4.6 mph - N/A   Clear
5:55 AM -5.8 °F -18.4 °F -11.2 °F 77% 30.33 in 10.0 mi SSW 5.8 mph - N/A   Clear
6:15 AM -9.4 °F -22.7 °F -16.6 °F 71% 30.34 in 10.0 mi SW 5.8 mph - N/A   Clear
6:35 AM -9.4 °F -22.7 °F -16.6 °F 71% 30.34 in 10.0 mi SW 5.8 mph - N/A   Partly Cloudy
6:55 AM -7.6 °F -22.1 °F -7.6 °F 100% 30.35 in 10.0 mi SW 6.9 mph - N/A   Mostly Cloudy
7:15 AM -7.6 °F -16.5 °F -14.8 °F 71% 30.35 in 10.0 mi WNW 3.5 mph - N/A   Overcast
7:35 AM -5.8 °F -16.7 °F -9.4 °F 84% 30.37 in 10.0 mi NNW 4.6 mph - N/A   Overcast
7:55 AM -5.8 °F -14.5 °F -11.2 °F 77% 30.36 in 10.0 mi SSE 3.5 mph - N/A   Overcast
8:35 AM -5.8 °F -16.7 °F - N/A% 30.37 in 10.0 mi SSE 4.6 mph - N/A   Overcast
8:55 AM -5.8 °F -16.7 °F -9.4 °F 84% 30.37 in 10.0 mi SSE 4.6 mph - N/A   Overcast
9:35 AM -4.0 °F -17.8 °F -5.8 °F 92% 30.37 in 10.0 mi South 6.9 mph - N/A   Clear
10:15 AM -2.2 °F -15.6 °F -4.0 °F 92% 30.37 in 10.0 mi South 6.9 mph - N/A   Partly Cloudy
10:35 AM -0.4 °F -13.4 °F -5.8 °F 78% 30.36 in 10.0 mi South 6.9 mph - N/A   Scattered Clouds
10:55 AM -0.4 °F -14.7 °F -5.8 °F 78% 30.34 in 10.0 mi South 8.1 mph - N/A   Clear
11:15 AM 1.4 °F -13.5 °F -2.2 °F 85% 30.32 in 10.0 mi South 9.2 mph - N/A   Clear
11:35 AM 1.4 °F -14.5 °F -2.2 °F 85% 30.31 in 10.0 mi South 10.4 mph - N/A   Clear
11:55 AM 3.2 °F -12.2 °F 1.4 °F 92% 30.30 in 10.0 mi South 10.4 mph - N/A   Clear
12:35 PM 6.8 °F -7.8 °F 1.4 °F 79% 30.27 in 10.0 mi South 10.4 mph - N/A   Clear
12:55 PM 6.8 °F -9.3 °F 1.4 °F 79% 30.26 in 10.0 mi South 12.7 mph - N/A   Clear
1:15 PM 8.6 °F -3.7 °F 1.4 °F 73% 30.24 in 10.0 mi South 8.1 mph - N/A   Clear
1:35 PM 8.6 °F -3.7 °F 3.2 °F 79% 30.22 in 10.0 mi South 8.1 mph - N/A   Clear
2:15 PM 10.4 °F -3.3 °F 1.4 °F 67% 30.21 in 10.0 mi South 10.4 mph - N/A   Clear
2:35 PM 10.4 °F -3.3 °F 3.2 °F 73% 30.20 in 10.0 mi South 10.4 mph - N/A   Scattered Clouds
3:15 PM 10.4 °F -1.5 °F 1.4 °F 67% 30.17 in 10.0 mi South 8.1 mph - N/A   Clear
3:35 PM 10.4 °F -3.3 °F 1.4 °F 67% 30.16 in 10.0 mi South 10.4 mph - N/A   Clear
3:55 PM 10.4 °F -3.3 °F 1.4 °F 67% 30.15 in 10.0 mi South 10.4 mph - N/A   Clear
4:15 PM 8.6 °F -5.5 °F -0.4 °F 67% 30.13 in 10.0 mi South 10.4 mph - N/A   Clear
4:35 PM 8.6 °F -5.5 °F 1.4 °F 73% 30.12 in 10.0 mi South 10.4 mph - N/A   Clear
4:55 PM 8.6 °F -3.7 °F 1.4 °F 73% 30.11 in 10.0 mi South 8.1 mph - N/A   Clear
5:15 PM 6.8 °F -5.9 °F -0.4 °F 72% 30.10 in 10.0 mi South 8.1 mph - N/A   Clear
6:35 PM 6.8 °F -10.0 °F -0.4 °F 72% 30.04 in 10.0 mi South 13.8 mph - N/A   Clear
6:55 PM 6.8 °F -10.0 °F -0.4 °F 72% 30.02 in 10.0 mi South 13.8 mph - N/A   Clear
7:15 PM 6.8 °F -7.8 °F -0.4 °F 72% 30.00 in 10.0 mi South 10.4 mph - N/A   Clear
7:35 PM 6.8 °F -9.3 °F -0.4 °F 72% 30.00 in 10.0 mi South 12.7 mph - N/A   Clear
7:55 PM 6.8 °F -10.0 °F -0.4 °F 72% 29.98 in 10.0 mi South 13.8 mph - N/A   Clear
8:15 PM 5.0 °F -6.9 °F -2.2 °F 72% 29.98 in 10.0 mi SSW 6.9 mph - N/A   Clear
8:36 PM 5.0 °F -10.0 °F 1.4 °F 85% 29.96 in 10.0 mi South 10.4 mph - N/A   Clear
8:55 PM 6.8 °F -8.6 °F -0.4 °F 72% 29.95 in 10.0 mi South 11.5 mph - N/A   Clear
9:35 PM 6.8 °F -3.5 °F -2.2 °F 67% 29.92 in 10.0 mi SSW 5.8 mph - N/A   Clear
9:55 PM 6.8 °F -8.6 °F 1.4 °F 79% 29.90 in 10.0 mi South 11.5 mph - N/A   Clear
10:15 PM 8.6 °F -8.3 °F 1.4 °F 73% 29.88 in 10.0 mi South 15.0 mph - N/A   Clear
10:35 PM 8.6 °F -6.3 °F 1.4 °F 73% 29.87 in 10.0 mi South 11.5 mph - N/A   Scattered Clouds
10:55 PM 8.6 °F -5.5 °F 3.2 °F 79% 29.87 in 10.0 mi SSW 10.4 mph - N/A   Mostly Cloudy
11:15 PM 10.4 °F -4.8 °F 5.0 °F 79% 29.85 in 10.0 mi SSW 12.7 mph - N/A   Scattered Clouds
11:35 PM 10.4 °F -5.4 °F 3.2 °F 73% 29.84 in 10.0 mi SSW 13.8 mph - N/A   Mostly Cloudy
11:55 PM 12.2 °F -4.3 °F 5.0 °F 73% 29.82 in 10.0 mi SSW 16.1 mph - N/A   Mostly Cloudy